Home > Weather > Bernau bei Berlin > Past weeks

Flag for Germany Past Weather in Bernau bei Berlin, Brandenburg, Germany — Yesterday and Last 2 Weeks

Now
75 °F

Partly sunny.


Feels Like: 78 °F
Forecast: 64 / 82 °F
Wind: 10 mph from East

Location: Berlin-Tegel

Current Time: May 29, 2016 at 11:42:27 AM

Latest Report: May 29, 2016 at 11:20 AM


Visibility: N/A

Pressure: 29.77 "Hg

Humidity: 57%

Dew Point: 59 °F

Location of Bernau bei BerlinLocation

Past Weather in Bernau bei Berlin — Graph

°F

Bernau bei Berlin Temperature Yesterday

Maximum temperature yesterday: 75 °F (at 5:20 PM)
Minimum temperature yesterday: 52 °F (at 4:50 AM)
Average temperature yesterday: 65 °F

High & Low Weather Summary for the Past Weeks

 TemperatureHumidityPressure
High84 °F (May 22, 2:50 PM)100% (May 24, 5:20 AM)30.07 "Hg (May 24, 5:20 AM)
Low41 °F (May 16, 2:50 AM)20% (May 19, 2:50 PM)29.65 "Hg (May 14, 10:20 AM)
Average60 °F64%29.90 "Hg
* Reported May 14 10:20 AM — May 29 10:20 AM, Bernau bei Berlin, Weather by CustomWeather, © 2016

Note: Actual official high and low records may vary slightly from our data, if they occured in-between our weather recording intervals... More about our weather records

Advertising

Bernau bei Berlin Weather History for the Previous 24 Hours

Scroll right to see more
 ConditionsComfort  
Time TempWeatherWind HumidityBarometerVisibility
10:20 AM
Sun, May 29
73 °FPassing clouds.8 mph57%29.77 "HgN/A
9:50 AM72 °FPassing clouds.9 mph61%29.77 "HgN/A
9:20 AM68 °FPassing clouds.7 mph69%29.80 "HgN/A
8:50 AM66 °FPassing clouds.8 mph73%29.80 "HgN/A
8:20 AM64 °FPassing clouds.7 mph78%29.80 "HgN/A
7:50 AM64 °FPassing clouds.7 mph78%29.80 "HgN/A
7:20 AM63 °FPassing clouds.6 mph83%29.80 "HgN/A
6:50 AM61 °FPassing clouds.6 mph88%29.80 "HgN/A
6:20 AM59 °FPassing clouds.6 mph88%29.80 "HgN/A
5:50 AM59 °FPassing clouds.6 mph88%29.83 "HgN/A
5:20 AM59 °FPassing clouds.7 mph88%29.83 "HgN/A
4:50 AM59 °FPassing clouds.5 mph88%29.83 "HgN/A
4:20 AM59 °FPassing clouds.5 mph88%29.83 "HgN/A
3:50 AM59 °FPassing clouds.5 mph88%29.86 "HgN/A
3:20 AM59 °FPassing clouds.7 mph88%29.83 "HgN/A
2:50 AM59 °FPassing clouds.8 mph88%29.83 "HgN/A
2:20 AM61 °FPassing clouds.6 mph83%29.86 "HgN/A
1:50 AM61 °FPassing clouds.6 mph83%29.86 "HgN/A
1:20 AM61 °FPassing clouds.6 mph83%29.86 "HgN/A
12:50 AM63 °FPassing clouds.7 mph77%29.89 "HgN/A
12:20 AM63 °FPassing clouds.7 mph77%29.89 "HgN/A
11:50 PM
Sat, May 28
63 °FPassing clouds.7 mph77%29.89 "HgN/A
11:20 PM64 °FPassing clouds.8 mph73%29.89 "HgN/A
10:50 PM64 °FPassing clouds.8 mph73%29.89 "HgN/A
10:20 PM66 °FPassing clouds.9 mph73%29.89 "HgN/A
9:50 PM68 °FPassing clouds.10 mph69%29.92 "HgN/A
9:20 PM70 °FPassing clouds.8 mph60%29.92 "HgN/A
8:50 PM70 °FPassing clouds.7 mph57%29.89 "HgN/A
8:20 PM72 °FPassing clouds.7 mph57%29.89 "HgN/A
7:50 PM72 °FPassing clouds.6 mph53%29.89 "HgN/A
7:20 PM73 °FPassing clouds.7 mph50%29.89 "HgN/A
6:50 PM73 °FPassing clouds.7 mph50%29.92 "HgN/A
6:20 PM73 °FPassing clouds.7 mph50%29.89 "HgN/A
5:50 PM73 °FPassing clouds.8 mph47%29.92 "HgN/A
5:20 PM75 °FPassing clouds.8 mph47%29.92 "HgN/A
4:50 PM73 °FPassing clouds.6 mph47%29.92 "HgN/A
4:20 PM73 °FPassing clouds.5 mph47%29.92 "HgN/A
3:50 PM73 °FPassing clouds.7 mph44%29.92 "HgN/A
3:20 PM73 °FPassing clouds.6 mph44%29.95 "HgN/A
2:50 PM73 °FPassing clouds.6 mph44%29.95 "HgN/A
2:20 PM73 °FPassing clouds.5 mph44%29.95 "HgN/A
1:50 PM72 °FPassing clouds.6 mph47%29.95 "HgN/A
1:20 PM73 °FSunny.3 mph44%29.95 "Hg10 mi
12:50 PM73 °FSunny.6 mph44%29.95 "Hg10 mi
12:20 PM73 °FScattered clouds.5 mph44%29.95 "HgN/A
11:50 AM72 °FScattered clouds.6 mph47%29.98 "HgN/A
11:20 AM70 °FPassing clouds.5 mph50%29.98 "HgN/A
Weather by CustomWeather, © 2016

See weather overviewHow to use our weather pages